Location: Rio de Janeiro
(22.9068°S, 43.1729°W)
Time: 16:37:50
(UTC-03:00)

METEOR M2 - Visible Passes

Search period start: 08 October 2024 00:00
Search period end: 18 October 2024 00:00
Orbit: 817 x 826 km, 98.4° (Epoch: 08 October)

Date Brightness Start Highest point End Pass type
(mag) Time Alt. Az. Time Alt. Az. Time Alt. Az.
08 Oct ? 03:56:36 10° NE 04:01:34 39° ESE 04:06:35 10° S visible
09 Oct ? 03:37:09 10° NE 03:41:24 24° ESE 03:45:41 10° SSE visible
10 Oct ? 03:18:24 10° ENE 03:21:18 15° ESE 03:24:12 10° SE visible
10 Oct ? 04:55:49 10° N 05:00:57 46° W 05:06:10 10° SSW visible
11 Oct ? 04:35:16 10° N 04:40:38 78° WNW 04:46:05 10° SSW visible
12 Oct ? 04:15:04 10° NNE 04:20:23 64° ESE 04:25:45 10° S visible
12 Oct ? 18:26:14 10° SW 18:27:24 11° WSW 18:28:32 10° W visible
13 Oct ? 03:55:12 10° NE 04:00:10 38° ESE 04:05:09 10° S visible
14 Oct ? 03:35:47 10° ENE 03:39:59 24° ESE 03:44:13 10° SSE visible
15 Oct ? 03:17:03 10° E 03:19:53 14° ESE 03:22:41 10° SE visible
15 Oct ? 04:54:21 10° N 04:59:31 47° W 05:04:44 10° SSW visible
16 Oct ? 04:33:49 10° N 04:39:12 80° WNW 04:44:39 10° SSW visible
17 Oct ? 04:13:37 10° NNE 04:18:56 63° ESE 04:24:17 10° S visible
17 Oct ? 18:24:35 10° SW 18:25:56 11° WSW 18:27:17 10° W visible
